Wind_Speed
7 5 2 4 4 4 1 1 1 2 1 1 0 2 3 2 3 2 3 9 1 11 23 21 19 17 14 12 12 11 9 8 8 8 8 8 8 8 8 9 7 9 10 9 8 8 7 7 7
5 3 4 2 4 3 2 3 2 1 1 2 1 1 3 1 1 2 2 10 1 13 21 21 19 17 15 13 11 10 8 7 7 6 6 6 6 7 9 7 6 7 6 6 7 7 6 5 5
2 4 3 4 3 3 3 3 1 1 2 1 1 2 2 2 2 3 4 8 3 12 19 20 19 17 15 12 11 9 8 6 5 5 5 4 5 7 6 3 5 7 5 5 7 5 5 5 5
1 5 4 4 3 2 0 2 2 1 2 3 1 3 2 2 1 4 3 7 3 10 15 20 20 18 16 13 11 11 10 8 5 4 3 3 4 5 4 4 4 5 6 6 6 5 5 6 5
5 3 4 4 0 1 3 3 2 1 0 2 2 1 1 4 5 5 5 4 2 6 12 15 18 19 17 15 12 11 11 8 6 5 4 5 3 3 4 3 2 2 3 5 6 5 5 6 6
4 3 4 3 2 2 3 2 1 1 0 0 2 1 2 9 7 6 4 5 3 3 7 10 15 17 16 14 14 13 12 10 7 6 5 7 3 1 2 3 4 3 2 6 4 5 6 6 5
6 4 4 4 3 0 2 3 3 2 1 2 1 2 2 12 15 5 4 7 7 4 3 6 10 15 17 16 15 15 15 12 10 10 8 8 6 3 2 2 3 5 4 5 6 7 7 7 5
4 4 4 2 3 3 1 0 1 2 1 4 0 2 1 9 13 5 6 7 7 5 1 3 7 12 16 18 18 17 16 14 12 10 8 8 7 5 3 4 4 5 4 6 9 9 9 7 4
3 4 3 5 6 3 1 2 1 1 2 3 4 5 5 9 6 5 8 9 7 5 3 3 6 9 11 16 17 17 17 15 13 9 8 8 9 7 9 8 6 6 4 6 9 10 11 11 6
4 3 6 5 4 3 1 1 1 1 4 3 4 7 14 17 18 19 17 16 16 14 8 6 6 10 11 13 14 15 16 15 12 11 11 10 8 8 9 10 9 7 4 8 9 12 13 13 10
1 4 4 3 3 4 3 1 1 3 2 1 2 3 11 16 18 17 14 14 14 14 12 10 7 9 13 12 13 12 13 12 12 12 11 12 12 12 10 10 9 10 8 7 8 12 13 14 12
2 0 3 1 2 4 3 2 2 3 3 6 9 8 7 14 14 14 14 16 16 14 14 10 6 5 10 14 10 10 9 10 10 12 11 10 14 12 12 11 10 10 10 9 8 8 12 14 12
2 0 1 2 4 3 2 4 4 3 7 10 12 13 11 11 11 12 13 14 15 16 15 13 11 5 5 12 13 9 6 7 9 8 9 10 9 11 11 12 11 11 10 11 10 8 10 12 12
2 1 4 4 3 3 4 3 4 4 6 9 10 10 9 12 12 13 18 17 18 16 17 14 13 10 5 8 12 7 5 4 4 3 3 4 5 9 11 12 13 12 11 12 12 12 12 12 13
2 2 7 2 1 3 6 2 4 6 7 8 8 7 8 11 12 13 12 13 16 16 17 16 16 16 18 17 16 13 12 12 11 9 7 4 3 3 5 6 7 9 11 13 13 13 13 13 12
2 4 2 2 0 1 4 5 3 7 7 6 5 5 7 10 11 13 13 13 13 15 19 19 19 21 22 21 20 19 17 17 17 16 15 14 11 9 6 5 5 5 6 7 10 12 12 12 12
5 3 4 6 1 2 3 5 4 5 5 5 4 5 6 7 13 15 13 13 14 15 19 23 24 26 26 25 26 27 26 26 26 23 21 19 17 15 14 14 13 10 8 7 6 7 8 11 13
6 4 5 5 3 2 2 8 5 2 5 5 5 5 6 7 8 11 13 14 16 18 19 22 26 28 30 30 30 30 29 28 26 26 24 21 20 19 18 17 16 15 13 13 12 9 8 7 9
5 4 6 2 3 3 6 6 7 3 5 6 5 5 5 6 6 13 17 18 20 23 24 23 20 20 24 26 29 31 31 28 28 26 22 20 18 18 18 18 18 18 18 17 15 11 10 9 12
4 4 6 5 3 2 5 9 7 1 3 5 8 7 7 5 5 11 16 21 24 24 24 25 26 23 23 25 25 26 29 30 29 27 26 24 23 22 21 20 21 19 17 17 18 17 12 9 14
5 7 5 6 1 2 2 7 4 1 2 4 4 5 4 6 7 5 12 17 21 25 24 25 24 22 25 27 28 30 32 30 30 30 30 29 27 27 26 26 25 25 25 25 23 21 19 13 12
6 8 7 5 4 4 1 4 4 3 3 4 5 6 6 6 4 5 8 13 18 20 23 25 26 26 24 23 26 29 31 31 28 29 28 28 27 28 28 27 27 27 27 28 27 24 23 19 16
6 6 7 4 4 2 3 0 7 3 6 8 7 6 6 6 5 6 7 9 12 16 21 23 25 25 25 25 25 29 33 30 27 26 26 25 25 25 26 25 25 26 26 25 25 24 24 23 19
9 6 6 4 3 2 8 8 4 5 6 4 10 12 11 8 6 9 8 9 11 13 19 21 23 24 23 24 26 27 28 26 25 23 23 23 22 22 23 22 23 23 22 23 22 21 21 20 18
1 6 1 2 1 5 3 3 7 3 2 2 14 12 10 10 9 9 12 13 13 12 14 18 20 23 22 22 23 23 23 23 23 21 20 19 19 20 20 19 20 20 19 19 19 19 19 18 17
8 6 5 7 4 3 2 6 6 2 1 2 7 13 12 10 7 8 14 15 14 13 13 16 18 20 18 18 20 20 19 20 20 18 17 18 17 16 14 15 16 17 18 19 19 20 20 19 19
6 6 4 6 2 3 4 4 3 1 1 2 8 12 15 13 11 10 15 16 16 16 16 16 17 18 17 17 18 18 17 16 16 15 14 14 13 13 14 16 18 19 20 21 22 23 23 22 22
5 7 3 2 2 4 3 4 5 6 8 6 9 14 13 10 9 10 19 20 18 17 17 17 17 18 18 16 15 15 14 13 12 11 11 10 10 10 12 14 17 18 20 22 23 25 25 25 24
4 3 2 4 4 5 2 5 6 9 9 14 13 16 16 15 14 12 18 23 21 19 20 19 19 19 19 17 15 13 12 10 9 8 8 8 8 10 12 15 18 20 22 23 24 24 23 24 26
2 7 7 4 5 2 1 6 1 4 8 11 13 13 11 12 13 15 21 24 23 24 22 22 22 21 19 18 15 12 9 7 5 5 6 8 9 11 14 16 18 20 22 23 23 23 23 23 22
Wind_Direction
338 343 353 41 61 65 25 131 270 18 28 258 167 157 145 144 142 136 341 178 19 182 179 177 176 174 174 174 170 162 155 147 138 130 124 121 119 116 113 125 99 76 64 56 49 51 57 60 65
351 3 54 75 82 68 287 269 150 197 246 301 149 73 71 61 257 309 53 172 31 170 182 181 180 179 182 183 180 177 172 161 151 143 137 129 123 121 130 129 103 64 55 48 46 39 43 47 53
35 39 79 87 105 147 173 230 230 295 323 137 96 46 125 354 17 36 1 178 134 174 187 187 186 184 189 194 194 195 190 178 166 158 149 143 133 119 139 112 49 28 41 30 33 15 17 18 16
77 34 48 78 99 205 47 308 220 352 348 40 37 61 319 346 6 347 49 154 150 176 184 191 194 194 194 198 211 206 200 196 192 186 175 157 136 118 100 87 56 36 27 19 16 350 355 354 352
52 57 59 85 44 244 264 262 161 91 78 344 349 342 18 27 18 43 69 96 92 168 187 201 206 204 201 199 206 213 205 207 210 212 196 199 155 131 136 123 163 335 359 5 11 355 344 348 347
47 86 68 149 217 293 274 314 187 111 294 334 62 68 64 26 19 29 48 55 70 138 183 201 211 215 214 210 215 220 222 219 216 232 227 206 217 215 186 189 257 328 344 333 10 346 348 347 349
105 79 154 146 178 151 208 331 156 135 13 38 108 89 147 17 15 7 49 48 53 71 158 201 210 216 219 218 221 226 229 227 227 226 230 216 231 237 227 264 308 330 336 322 338 336 343 344 355
104 93 111 198 174 184 258 275 103 65 249 320 190 40 57 340 355 32 67 61 62 69 106 225 232 225 222 221 224 230 233 235 232 231 232 236 244 245 271 280 297 328 345 331 339 339 337 339 353
128 67 145 194 155 178 333 108 71 280 33 11 33 66 355 12 41 69 46 21 22 21 350 284 238 234 235 229 229 232 233 234 232 237 242 246 240 247 274 271 281 305 327 332 334 333 336 340 345
79 101 202 186 188 149 99 131 315 119 3 353 96 68 36 44 50 49 36 19 16 11 0 323 275 241 230 233 230 229 233 234 233 238 238 241 248 252 260 267 250 264 293 314 323 331 336 339 336
151 164 186 194 190 143 147 245 188 143 114 229 351 34 23 33 38 39 32 23 10 8 8 356 314 265 240 231 235 234 231 230 234 250 247 245 242 253 256 253 263 271 276 286 306 321 325 328 331
100 139 179 312 152 141 170 160 270 122 128 80 78 72 48 35 31 22 14 9 8 11 10 10 349 290 250 223 224 235 242 237 244 240 248 262 265 254 255 251 261 268 265 272 285 306 328 325 322
114 301 201 277 271 247 89 219 230 98 107 91 76 60 50 40 30 29 24 20 14 14 14 13 7 344 244 214 194 202 207 218 240 265 261 259 259 280 265 258 258 261 267 270 270 285 305 310 316
168 254 273 274 182 223 184 178 152 123 122 79 73 63 51 45 26 23 23 18 21 17 20 25 30 35 72 157 162 166 161 110 131 195 268 315 296 270 268 267 269 262 274 273 272 282 290 300 307
106 317 328 286 277 219 155 130 210 127 126 94 75 73 63 48 40 33 25 24 21 29 34 45 60 76 95 109 120 125 114 102 90 74 62 51 28 347 346 325 290 281 280 273 273 278 280 284 288
65 52 352 266 180 7 157 252 194 163 135 109 95 74 62 47 39 37 36 39 45 57 60 67 81 93 103 113 117 116 109 103 92 85 75 67 59 57 66 61 29 347 332 319 309 297 292 294 295
7 233 223 313 232 151 177 250 154 175 121 132 101 78 72 55 39 36 41 47 52 65 81 84 89 94 100 104 103 102 98 93 87 81 76 73 67 65 61 58 55 48 37 24 0 340 315 317 322
195 212 244 234 217 187 191 261 174 109 135 134 111 83 70 64 37 42 59 69 78 81 86 88 91 97 100 104 104 97 91 85 81 76 70 68 67 67 66 61 55 50 46 42 35 35 30 10 355
138 169 216 226 257 174 226 255 262 134 104 137 134 115 94 64 36 54 61 70 78 85 91 94 99 97 99 98 98 95 88 84 78 73 69 66 63 63 63 63 60 55 52 48 40 30 27 21 8
139 166 242 292 222 135 276 260 261 90 158 175 160 153 142 111 57 49 57 64 67 71 79 85 89 94 99 97 96 95 91 83 80 75 70 65 61 61 60 59 57 56 55 48 42 39 28 24 23
198 198 190 215 37 214 354 278 230 59 78 96 123 129 130 138 122 93 78 73 75 74 73 81 88 96 101 104 105 101 97 90 82 76 74 70 68 66 63 63 62 56 51 48 42 37 34 19 14
206 194 176 174 126 234 139 275 289 186 167 177 169 163 161 154 137 114 90 80 87 93 102 101 97 98 101 109 109 101 97 93 87 84 80 76 72 69 67 63 60 60 58 54 52 47 44 38 26
229 138 164 141 158 113 231 287 263 154 228 196 190 185 189 173 152 119 102 95 94 100 97 97 99 99 100 100 101 100 99 98 96 89 83 77 71 68 63 59 57 55 53 49 45 42 44 45 42
148 81 56 56 108 255 215 183 257 205 211 158 179 182 185 179 160 147 138 131 115 111 110 108 106 103 104 104 103 102 104 104 99 91 84 76 71 66 60 56 52 49 45 40 37 32 29 28 26
125 117 50 330 275 228 49 145 247 236 182 180 189 179 177 183 167 169 172 162 142 133 121 116 114 109 108 105 103 101 99 96 91 87 82 75 68 59 51 46 43 39 34 29 24 20 15 13 8
190 169 169 207 199 232 46 220 243 153 117 247 170 169 176 177 176 181 185 176 164 155 145 133 126 119 116 111 106 103 100 95 91 85 77 71 64 58 49 42 34 27 20 14 11 8 3 359 353
186 203 165 108 42 65 218 275 270 146 198 100 159 166 181 183 183 188 189 187 176 170 165 153 143 136 131 125 120 112 104 100 94 86 76 68 59 48 35 25 18 12 9 5 0 358 354 349 346
179 156 99 4 210 260 264 257 228 205 202 180 186 189 191 185 178 188 194 193 187 185 178 171 166 153 145 139 132 123 116 106 98 88 74 61 47 32 17 9 4 360 358 356 353 350 348 344 343
150 181 78 135 160 185 228 245 212 192 180 193 200 197 192 187 190 193 194 197 196 193 190 182 176 171 164 160 153 144 137 123 106 88 69 49 27 12 4 359 356 354 353 352 349 347 345 340 337
224 189 163 169 213 256 172 244 115 233 200 188 197 191 188 193 193 191 194 195 197 200 195 192 187 184 182 177 172 163 151 142 118 78 46 23 8 358 354 353 351 350 350 349 347 343 340 336 331
Height
818 817 817 817 841 852 865 856 849 845 844 838 836 837 838 837 844 856 834 835 835 836 839 843 846 849 851 853 854 857 858 859 860 861 862 863 864 865 865 867 867 867 867 867 867 866 866 866 866
818 817 818 830 855 868 863 855 848 843 839 836 836 836 838 842 834 833 834 835 836 837 840 843 846 850 852 854 856 858 859 860 861 862 863 864 865 866 867 868 868 868 869 868 867 867 867 866 866
817 817 825 847 868 868 861 850 845 841 837 837 838 836 837 838 834 835 835 835 836 837 840 843 846 849 852 854 856 858 860 861 862 864 865 866 867 867 868 869 869 869 870 869 868 868 868 867 868
817 819 835 853 856 854 851 845 843 840 837 836 837 840 837 836 836 835 835 836 837 838 839 842 845 848 851 854 856 857 860 861 862 864 865 866 867 868 869 870 871 871 870 870 870 869 869 868 868
817 828 852 860 856 851 849 843 841 842 841 839 838 841 840 837 837 837 837 838 839 840 842 845 846 848 850 852 855 857 859 861 862 864 865 866 867 868 869 870 871 871 872 871 870 869 869 869 869
830 837 859 864 857 850 846 843 840 841 840 838 839 841 842 840 838 838 838 839 839 840 842 845 847 849 851 854 855 857 858 860 862 864 865 866 867 868 870 871 871 872 872 871 871 871 870 869 869
836 850 862 861 858 850 844 843 841 840 840 839 837 842 841 839 839 839 839 839 840 841 842 844 845 847 850 853 855 856 857 859 861 862 864 865 866 868 869 871 871 872 872 873 872 871 871 870 870
836 847 861 858 856 852 842 840 838 839 839 836 837 845 845 844 842 840 840 839 839 840 840 842 843 845 846 849 851 854 856 858 860 861 863 864 865 867 868 870 871 872 872 873 872 872 872 871 871
832 853 864 855 858 846 842 841 839 839 840 839 840 845 851 846 842 839 838 838 838 839 839 840 840 842 844 846 848 851 853 855 858 860 862 863 864 866 868 869 871 871 872 872 872 873 873 872 870
840 856 849 845 845 844 842 841 841 841 844 841 842 848 849 844 841 841 842 842 840 838 838 838 838 839 841 843 845 848 851 854 856 858 859 861 863 865 867 868 869 870 871 872 872 872 872 871 870
842 847 842 838 838 840 842 841 840 842 847 843 845 849 850 847 846 845 845 845 843 840 838 837 836 837 838 840 844 846 849 852 855 857 858 860 861 863 864 866 867 868 869 870 870 871 871 870 869
839 839 840 836 836 839 841 839 840 841 846 849 852 854 853 851 850 849 847 845 842 839 837 834 833 833 834 837 842 846 849 852 854 856 859 860 860 861 862 863 864 866 867 867 868 869 869 869 868
839 839 839 836 837 838 840 840 840 844 852 853 854 854 855 854 853 851 849 846 843 839 837 834 831 829 829 833 838 842 846 849 852 854 856 857 859 860 861 861 862 863 864 865 865 866 866 867 867
837 839 840 837 837 837 839 841 840 850 854 856 856 858 858 856 855 852 849 847 843 841 837 834 831 828 827 831 838 843 846 848 849 850 852 854 855 858 859 861 862 863 863 863 864 864 864 865 865
839 841 841 834 835 834 838 844 843 845 852 856 858 858 857 857 855 853 852 849 846 844 840 836 832 830 830 833 837 841 844 847 850 853 853 853 853 854 856 858 860 861 861 862 862 862 863 863 863
845 850 851 834 834 834 836 843 841 846 846 853 856 858 858 858 857 855 853 851 847 844 841 839 837 834 833 834 837 841 844 847 850 852 853 855 856 856 855 855 856 858 859 859 860 861 861 862 862
858 855 856 845 834 835 836 838 840 845 847 855 859 860 859 859 858 856 854 852 850 847 844 842 841 840 838 839 842 843 846 849 851 854 855 856 857 857 858 858 857 856 856 857 857 858 859 860 861
856 857 856 850 837 836 839 839 843 845 850 858 862 863 863 862 861 858 855 853 850 849 849 848 846 843 843 843 843 847 850 853 854 856 857 859 859 858 857 858 858 858 857 857 858 858 857 857 857
845 849 847 843 838 838 842 842 833 849 856 860 863 865 866 866 866 863 860 857 855 851 848 848 851 851 850 849 848 848 851 856 857 860 862 862 862 862 861 860 860 859 858 859 859 859 859 858 856
845 848 850 845 841 842 843 843 838 848 852 855 860 863 863 866 868 867 865 861 858 857 856 853 852 854 853 854 854 855 857 859 861 863 864 865 866 865 864 864 863 863 862 861 860 859 861 860 860
847 847 849 842 843 844 845 843 841 854 857 859 861 863 866 866 865 865 863 861 861 858 862 859 857 857 857 857 857 859 860 863 866 867 868 869 869 869 869 867 865 866 867 865 865 863 862 862 861
846 839 840 843 847 853 845 850 835 847 855 859 862 865 866 866 866 866 868 865 860 858 855 857 859 859 861 863 862 860 862 863 870 871 874 873 873 874 872 873 871 868 868 868 868 867 865 865 866
833 838 842 843 848 850 850 855 836 846 843 853 862 867 868 868 869 871 872 872 870 866 864 865 865 865 865 865 866 865 867 871 874 876 876 877 877 877 876 876 875 873 872 874 872 870 868 867 868
837 840 848 858 857 863 840 840 836 833 823 844 848 852 861 866 867 868 871 872 872 872 867 866 868 870 871 871 870 870 870 872 873 875 876 878 879 879 878 878 877 876 876 875 875 875 874 872 870
830 837 852 858 862 845 848 847 822 816 826 833 841 851 858 860 860 863 864 867 867 874 873 870 871 871 872 873 873 873 874 874 875 877 879 879 879 880 881 880 878 879 878 877 876 875 874 872 871
832 827 840 847 853 842 851 837 811 824 833 835 836 843 852 858 861 863 866 867 866 870 874 871 871 871 875 875 876 876 876 876 878 879 879 880 881 882 882 882 880 879 877 877 875 874 873 871 870
824 827 822 849 905 864 829 821 812 831 833 838 840 843 846 850 855 861 864 865 866 867 871 871 872 872 873 877 877 877 876 878 879 880 879 879 881 882 881 880 878 877 875 874 873 872 870 869 866
809 812 826 841 842 850 824 819 803 819 822 838 841 839 843 847 851 854 858 861 863 866 868 868 870 871 873 876 877 877 878 878 878 877 879 880 880 880 880 879 877 875 874 872 871 869 866 864 862
810 812 819 817 825 828 840 810 802 799 811 822 828 829 832 837 841 847 850 854 859 864 866 868 869 870 871 873 875 875 876 877 877 877 877 878 879 878 877 875 874 873 871 869 868 865 863 861 858
796 797 798 806 824 841 832 794 804 803 806 810 814 820 827 833 836 839 842 848 853 860 863 863 864 867 869 870 872 873 874 876 876 875 876 876 875 875 874 873 871 870 868 866 863 861 859 856 854